Location: Miss�
(46.9484°N, 0.1922°W)
Time: 03:28:39
(UTC+00:00)

USA 308 - Pass Details

Date: 02 March 2021
Orbit: 568 x 576 km, 54.0° (Epoch: 16 April)

Event Time Altitude Azimuth Distance (km) Brightness Sun altitude
Rises 18:22:53 0° 263° (W) 2,774 9.1 -6.8°
Reaches altitude 10° 18:25:14 10° 271° (W) 1,876 7.3 -7.2°
Maximum altitude 18:29:17 41° 343° (NNW) 832 3.9 -7.8°
Drops below altitude 10° 18:33:21 10° 54° (NE) 1,876 5.0 -8.5°
Enters shadow 18:33:57 - 57° (ENE) 2,099 5.3 -8.6°
